[[{"header":{"parameterUnit":"m.s-1","parameterCategory":1,"la1":30.2991,"la2":30.254,"lo1":-89.0895,"lo2":-89.0444,"dy":0.0017,"dx":0.0017,"nx":28,"ny":28,"refTime":"2024-08-25T03:00:00:Z","depth":0,"parameterNumber":2,"parameterNumberName":"U-component_of_WINDS"},"data":[0,0,0,0,0,0,0,0,0,0,0,0,0,0,0,0,0,0,0,0,0,0,0,0,0,0,0,0,0,0,0,0,0,0,0,0,0,0,0,0,0,0,0,0,0,0,0,0,0,0,0,0,0,0,0,0,0,0,-0.5064,-0.5064,0,-0.5071,-0.5071,-0.5071,-0.5015,-0.5013,-0.5012,-0.501,-0.5021,-0.5022,-0.5024,0,0,0,0,0,0,0,0,0,0,0,0,0,-0.5004,-0.5006,-0.5064,-0.5064,-0.5064,-0.5071,-0.5071,-0.5071,-0.5015,-0.5013,-0.5011,-0.501,-0.502,-0.5022,-0.5024,0,0,0,0,0,0,0,0,0,0,0,0,0,-0.5023,-0.5006,-0.5064,-0.5037,-0.5035,-0.5071,-0.5071,-0.5071,-0.5016,-0.5013,-0.5011,-0.5009,-0.5019,-0.5022,-0.5024,-0.5088,0,0,-0.5032,-0.5034,0,0,0,0,0,0,0,0,-0.5022,-0.5025,-0.5041,-0.5039,-0.5036,-0.5039,-0.5054,-0.5077,-0.5016,-0.5023,-0.501,-0.5007,-0.5029,-0.5031,-0.5037,-0.5088,-0.5089,-0.5033,-0.5034,-0.5035,-0.5036,0,0,0,0,0,0,0,-0.5021,-0.5025,-0.5067,-0.5041,-0.5038,-0.5025,-0.5025,-0.5058,-0.5039,-0.5022,-0.5018,-0.5019,-0.5027,-0.5035,-0.5037,-0.5089,-0.5033,-0.5035,-0.5037,-0.5038,-0.5192,-0.5195,0,0,0,0,0,0,-0.5023,-0.5024,-0.5067,-0.5067,-0.5023,-0.5028,-0.5028,-0.5041,-0.5039,-0.5036,-0.5021,-0.5017,-0.5032,-0.5034,-0.5037,-0.5112,-0.5035,-0.5038,-0.5039,-0.519,-0.5193,-0.5195,0,0,0,0,0,0,-0.5022,-0.5027,-0.5066,-0.5044,-0.5048,-0.5032,-0.5047,-0.5042,-0.505,-0.5038,-0.5035,-0.5033,-0.503,-0.5034,-0.5075,-0.5111,-0.5039,-0.5041,-0.5187,-0.5191,-0.5194,-0.5261,0,0,0,0,0,0,-0.502,-0.5027,-0.5051,-0.5045,-0.505,-0.5104,-0.5049,-0.5044,-0.5054,-0.5048,-0.5048,-0.5045,-0.5028,-0.5072,-0.5078,-0.5114,-0.5043,-0.5183,-0.5188,-0.5193,-0.5256,-0.5267,-0.5277,0,0,0,0,0,-0.5018,-0.507,-0.5052,-0.5058,-0.5079,-0.5106,-0.5109,-0.5087,-0.5057,-0.5081,-0.5073,-0.5045,-0.5106,-0.5077,-0.5083,-0.512,-0.5181,-0.5187,-0.5193,-0.5251,-0.5265,-0.5276,0,0,0,0,0,0,-0.5082,-0.5069,-0.5049,-0.5101,-0.5105,-0.5097,-0.5127,-0.5102,-0.5116,-0.511,-0.5083,-0.5084,-0.513,-0.5129,-0.5097,-0.5181,-0.5138,-0.5146,-0.5181,-0.5194,-0.5204,-0.5204,-0.5046,0,0,0,0,0,-0.5102,-0.5124,-0.5112,-0.5159,-0.5162,-0.5144,-0.5155,-0.5138,-0.5141,-0.5143,-0.5139,-0.5144,-0.5164,-0.5178,-0.5196,-0.5254,-0.5254,-0.5283,-0.5293,-0.5302,-0.5309,-0.534,-0.5353,-0.5214,-0.5214,-0.5214,0,0,-0.5144,-0.5139,-0.5155,-0.5171,-0.5173,-0.5198,-0.5146,-0.5174,-0.5193,-0.5148,-0.5187,-0.5184,-0.5188,-0.5239,-0.5261,-0.5239,-0.5347,-0.5309,-0.5316,-0.5319,-0.5347,-0.5361,-0.5372,-0.5218,-0.5217,-0.5217,0,0,-0.5233,-0.5231,-0.527,-0.5272,-0.5273,-0.5261,-0.527,-0.5265,-0.5261,-0.5299,-0.5266,-0.5288,-0.5323,-0.5327,-0.5334,-0.5423,-0.5398,-0.5429,-0.5484,-0.5515,-0.5526,-0.5535,-0.5568,-0.558,-0.5436,-0.5436,-0.5436,0,-0.5285,-0.532,-0.5293,-0.5324,-0.5332,-0.529,-0.533,-0.5333,-0.5342,-0.5349,-0.5323,-0.5366,-0.5366,-0.5417,-0.5438,-0.5445,-0.5456,-0.5431,-0.5526,-0.5535,-0.5544,-0.5575,-0.5587,-0.544,-0.544,-0.5439,-0.5439,0,-0.5385,-0.541,-0.5441,-0.5449,-0.546,-0.5495,-0.5474,-0.5488,-0.5469,-0.546,-0.5499,-0.5497,-0.5514,-0.5524,-0.5506,-0.5573,-0.5559,-0.553,-0.5487,-0.5562,-0.5591,-0.5602,-0.5446,-0.5445,-0.5443,-0.5442,0,0,-0.5518,-0.5508,-0.552,-0.5523,-0.5521,-0.554,-0.5572,-0.5587,-0.5601,-0.5607,-0.5635,-0.5665,-0.5638,-0.5646,-0.5627,-0.5654,-0.5725,-0.5622,-0.5622,-0.5643,-0.5799,-0.5823,-0.5837,-0.5707,-0.5709,-0.5711,-0.5799,0,-0.5606,-0.5661,-0.5636,-0.5694,-0.5717,-0.5677,-0.5705,-0.5708,-0.5699,-0.5717,-0.5707,-0.5729,-0.5691,-0.5696,-0.572,-0.5712,-0.5757,-0.5704,-0.5735,-0.5736,-0.5737,-0.5851,-0.5876,-0.596,-0.581,-0.5812,-0.5813,0,-0.5717,-0.5726,-0.5786,-0.5779,-0.5788,-0.5814,-0.5825,-0.5843,-0.5845,-0.5836,-0.5844,-0.5819,-0.5852,-0.5806,-0.5851,-0.5816,-0.5826,-0.5824,-0.5826,-0.583,-0.5781,-0.5861,-0.5986,-0.5999,-0.5831,-0.5829,-0.5828,0,-0.5809,-0.5837,-0.5876,-0.588,-0.5872,-0.5892,-0.5889,-0.5888,-0.5898,-0.5908,-0.5915,-0.5929,-0.5937,-0.5948,-0.5928,-0.5897,-0.5976,-0.5929,-0.5971,-0.5972,-0.5992,-0.5992,-0.6123,-0.5995,-0.5995,-0.5995,-0.5995,0,-0.5912,-0.5951,-0.5918,-0.5943,-0.5984,-0.5956,-0.5998,-0.5992,-0.5991,-0.6014,-0.5979,-0.6002,-0.5973,-0.5992,-0.5977,-0.6017,-0.602,-0.6015,-0.6011,-0.602,-0.6021,-0.6028,-0.6023,-0.5998,-0.5997,-0.5997,-0.5996,0,-0.6024,-0.6003,-0.6044,-0.6032,-0.603,-0.6062,-0.6053,-0.6075,-0.6062,-0.6092,-0.6097,-0.6078,-0.61,-0.608,-0.6101,-0.609,-0.6143,-0.613,-0.6143,-0.614,-0.6184,-0.6181,-0.6327,-0.6345,-0.6204,-0.6205,-0.6206,0,-0.6092,-0.612,-0.6111,-0.6124,-0.6123,-0.6144,-0.6153,-0.6125,-0.6137,-0.614,-0.6163,-0.618,-0.6194,-0.623,-0.6218,-0.6234,-0.6222,-0.6271,-0.6224,-0.6232,-0.6225,-0.6224,-0.6227,-0.6282,-0.6284,-0.6285,-0.6286,0,-0.6215,-0.6203,-0.6218,-0.6229,-0.6241,-0.6249,-0.6254,-0.6267,-0.6238,-0.6253,-0.6273,-0.6283,-0.6303,-0.6322,-0.6334,-0.6332,-0.6305,-0.6301,-0.6312,-0.6322,-0.6329,-0.6328,-0.6172,-0.6298,-0.6297,-0.6296,-0.6296,-0.6295,-0.6309,-0.6332,-0.6329,-0.6347,-0.6347,-0.6352,-0.6373,-0.6362,-0.6378,-0.6392,-0.6374,-0.64,-0.6399,-0.6412,-0.6413,-0.6433,-0.6413,-0.6428,-0.6432,-0.6437,-0.6444,-0.6324,-0.6435,-0.6435,-0.6434,-0.6434,-0.6434,0,-0.6432,-0.6427,-0.6443,-0.6451,-0.6465,-0.6435,-0.6439,-0.6453,-0.6476,-0.6477,-0.649,-0.6514,-0.6531,-0.652,-0.6535,-0.6553,-0.6541,-0.6558,-0.6558,-0.6558,-0.6461,-0.6451,-0.6568,-0.6568,-0.6568,-0.6568,-0.6568,-0.6568,-0.6498,-0.6536,-0.6523,-0.6561,-0.6556,-0.6581,-0.6585,-0.659,-0.6591,-0.6619,-0.6632,-0.6624,-0.6621,-0.6635,-0.6649,-0.6646,-0.6654,-0.6676,-0.6668,-0.6578,-0.6565,-0.6553,-0.6543,-0.6677,-0.6677,-0.6763,-0.6764,-0.6765]},{"header":{"parameterUnit":"m.s-1","parameterCategory":1,"la1":30.2991,"la2":30.254,"lo1":-89.0895,"lo2":-89.0444,"dy":0.0017,"dx":0.0017,"nx":28,"ny":28,"refTime":"2024-08-25T03:00:00:Z","depth":0,"parameterNumber":3,"parameterNumberName":"V-component_of_WINDS"},"data":[0,0,0,0,0,0,0,0,0,0,0,0,0,0,0,0,0,0,0,0,0,0,0,0,0,0,0,0,0,0,0,0,0,0,0,0,0,0,0,0,0,0,0,0,0,0,0,0,0,0,0,0,0,0,0,0,0,0,-3.978,-3.9781,0,-3.9913,-3.9915,-3.9916,-3.9893,-3.9891,-3.9889,-3.9887,-4.0018,-4.0023,-4.0029,0,0,0,0,0,0,0,0,0,0,0,0,0,-3.95,-3.9505,-3.978,-3.9781,-3.9783,-3.9913,-3.9915,-3.9917,-3.9894,-3.9891,-3.9888,-3.9886,-4.0016,-4.0022,-4.0029,0,0,0,0,0,0,0,0,0,0,0,0,0,-3.9626,-3.9507,-3.9779,-3.9787,-3.979,-3.9913,-3.9915,-3.9917,-3.9894,-3.9891,-3.9887,-3.9884,-4.0014,-4.0022,-4.003,-4.0152,0,0,-4.0056,-4.006,0,0,0,0,0,0,0,0,-3.9619,-3.9636,-3.9785,-3.9787,-3.979,-3.9883,-3.9864,-3.9996,-3.9895,-3.9854,-3.9887,-3.9883,-3.9975,-3.9987,-4.0019,-4.0158,-4.0164,-4.0057,-4.0062,-4.0066,-4.0068,0,0,0,0,0,0,0,-3.961,-3.963,-3.9832,-3.9787,-3.979,-3.9783,-3.9797,-3.9889,-3.9933,-3.9858,-3.9856,-3.9873,-3.9976,-4.0011,-4.0022,-4.0166,-4.0057,-4.0064,-4.0069,-4.0073,-4.0411,-4.0415,0,0,0,0,0,0,-3.96,-3.9623,-3.9828,-3.9836,-3.9694,-3.9791,-3.9806,-3.9857,-3.9932,-3.994,-3.9876,-3.9871,-3.9998,-4.0012,-4.0027,-4.0174,-4.0066,-4.0073,-4.0078,-4.0407,-4.0412,-4.0416,0,0,0,0,0,0,-3.9594,-3.9618,-3.9823,-3.973,-3.9755,-3.9799,-3.9856,-3.9861,-3.9896,-3.9945,-3.9952,-3.9904,-3.9996,-4.0015,-4.0122,-4.0179,-4.0077,-4.0085,-4.0403,-4.0409,-4.0414,-4.0471,0,0,0,0,0,0,-3.9586,-3.9616,-3.9664,-3.9731,-3.976,-3.9917,-3.9859,-3.9866,-3.9912,-3.9907,-3.9974,-3.9981,-3.9995,-4.0109,-4.013,-4.0188,-4.0092,-4.0398,-4.0406,-4.0412,-4.0464,-4.0478,-4.049,0,0,0,0,0,-3.9576,-3.9674,-3.9667,-3.9692,-3.9821,-3.992,-3.9937,-3.9952,-3.9916,-3.9964,-3.9996,-3.9979,-4.0169,-4.012,-4.0144,-4.0205,-4.0394,-4.0403,-4.0412,-4.0458,-4.0475,-4.0489,0,0,0,0,0,0,-3.961,-3.9682,-3.9676,-3.9798,-3.9854,-3.9916,-3.9977,-3.997,-4.0035,-4.0028,-4.0043,-4.0058,-4.0166,-4.0196,-4.014,-4.0327,-4.0276,-4.029,-4.0304,-4.032,-4.0333,-4.0323,-4.0099,0,0,0,0,0,-3.9633,-3.9709,-3.9767,-3.9869,-3.9897,-3.9933,-3.9976,-3.9984,-4.0041,-4.0064,-4.0103,-4.0158,-4.023,-4.0276,-4.0345,-4.0468,-4.0482,-4.0523,-4.0535,-4.0546,-4.0557,-4.0624,-4.0643,-4.0445,-4.0445,-4.0445,0,0,-3.9678,-3.9727,-3.9774,-3.9877,-3.9921,-3.9998,-3.9952,-4.0036,-4.0092,-4.0076,-4.0179,-4.021,-4.0272,-4.0388,-4.044,-4.0416,-4.0615,-4.0557,-4.0565,-4.0571,-4.0635,-4.0654,-4.0671,-4.0451,-4.045,-4.0449,0,0,-3.9801,-3.9846,-3.9936,-3.9982,-4.005,-4.0073,-4.0094,-4.0159,-4.0179,-4.0284,-4.0273,-4.034,-4.0464,-4.0509,-4.0547,-4.0688,-4.0675,-4.071,-4.0777,-4.0842,-4.0858,-4.0872,-4.0922,-4.0939,-4.0722,-4.0722,-4.0722,0,-3.9849,-3.9966,-3.9983,-4.0068,-4.0114,-4.0104,-4.0195,-4.0237,-4.0323,-4.0354,-4.0327,-4.0483,-4.0523,-4.0649,-4.0684,-4.0716,-4.074,-4.0702,-4.0855,-4.0869,-4.0882,-4.0929,-4.0948,-4.0726,-4.0725,-4.0725,-4.0725,0,-4.0021,-4.0103,-4.0167,-4.0253,-4.0306,-4.0393,-4.0422,-4.0473,-4.0476,-4.0501,-4.0608,-4.0657,-4.0736,-4.0766,-4.0769,-4.0893,-4.0876,-4.0851,-4.08,-4.0904,-4.0949,-4.0968,-4.0731,-4.073,-4.0729,-4.0728,0,0,-4.0168,-4.0264,-4.0287,-4.0326,-4.04,-4.0463,-4.0549,-4.0629,-4.0672,-4.0732,-4.0804,-4.091,-4.0888,-4.0932,-4.094,-4.0997,-4.1105,-4.0966,-4.0967,-4.0989,-4.1244,-4.1262,-4.1283,-4.1098,-4.1101,-4.1104,-4.1239,0,-4.0298,-4.0453,-4.0471,-4.0608,-4.0683,-4.0676,-4.0751,-4.0804,-4.0831,-4.0897,-4.0925,-4.1,-4.0966,-4.0992,-4.1049,-4.108,-4.1156,-4.1071,-4.1163,-4.1167,-4.1148,-4.1306,-4.1325,-4.145,-4.1256,-4.1259,-4.1262,0,-4.0469,-4.0536,-4.0682,-4.0747,-4.0779,-4.0846,-4.0921,-4.0985,-4.1044,-4.1059,-4.111,-4.111,-4.1198,-4.1145,-4.1265,-4.1207,-4.1246,-4.1267,-4.1272,-4.1281,-4.122,-4.1318,-4.149,-4.1508,-4.129,-4.1287,-4.1285,0,-4.0561,-4.0688,-4.0791,-4.0825,-4.0903,-4.0951,-4.0985,-4.1042,-4.1088,-4.1153,-4.1183,-4.1256,-4.1296,-4.1352,-4.1371,-4.1331,-4.1491,-4.1439,-4.1505,-4.1505,-4.1538,-4.1536,-4.1718,-4.1565,-4.1564,-4.1564,-4.1564,0,-4.0704,-4.0793,-4.0834,-4.0898,-4.0997,-4.1017,-4.1114,-4.1146,-4.1196,-4.1265,-4.1262,-4.1326,-4.1349,-4.1417,-4.1432,-4.153,-4.1548,-4.1561,-4.1564,-4.1561,-4.156,-4.1586,-4.1578,-4.1569,-4.1568,-4.1567,-4.1566,0,-4.0823,-4.0855,-4.0967,-4.1032,-4.1051,-4.1121,-4.1177,-4.1237,-4.1263,-4.135,-4.1371,-4.1411,-4.1491,-4.1517,-4.1612,-4.1622,-4.1736,-4.1732,-4.1717,-4.1717,-4.1781,-4.1774,-4.1986,-4.2015,-4.1843,-4.1845,-4.1846,0,-4.0912,-4.098,-4.1054,-4.1101,-4.1138,-4.1213,-4.1261,-4.1283,-4.1333,-4.1407,-4.1458,-4.1537,-4.1602,-4.1729,-4.1765,-4.1838,-4.1835,-4.1904,-4.1846,-4.1841,-4.1835,-4.1831,-4.1838,-4.1915,-4.1917,-4.1918,-4.1919,0,-4.1065,-4.1078,-4.1148,-4.1225,-4.1283,-4.1344,-4.1402,-4.144,-4.147,-4.1526,-4.1609,-4.1659,-4.1757,-4.1835,-4.191,-4.1943,-4.1936,-4.1938,-4.1957,-4.1954,-4.1942,-4.1949,-4.1746,-4.1932,-4.1931,-4.193,-4.1929,-4.1929,-4.1172,-4.1233,-4.1294,-4.1373,-4.142,-4.1475,-4.1535,-4.157,-4.164,-4.1723,-4.1731,-4.1819,-4.1877,-4.1977,-4.2014,-4.2083,-4.2063,-4.209,-4.2097,-4.2104,-4.2108,-4.1932,-4.2096,-4.2096,-4.2096,-4.2095,-4.2095,0,-4.1325,-4.1364,-4.1437,-4.152,-4.1582,-4.1572,-4.1636,-4.1688,-4.1767,-4.1822,-4.1887,-4.1981,-4.2057,-4.21,-4.2176,-4.2223,-4.2221,-4.2242,-4.2238,-4.2246,-4.2122,-4.2098,-4.2242,-4.2242,-4.2242,-4.2242,-4.2242,-4.2241,-4.1412,-4.1514,-4.1534,-4.1659,-4.1698,-4.1787,-4.1824,-4.1874,-4.1919,-4.2025,-4.2089,-4.2118,-4.2168,-4.2248,-4.2317,-4.2327,-4.2355,-4.2378,-4.2386,-4.227,-4.2254,-4.224,-4.2217,-4.2384,-4.2384,-4.2504,-4.2505,-4.2506]}]]